NPV4227 LIRN-LIML

Flight info

Callsign NPV4227
Flight time 1h 37m
Altitude 36000
Route ALAXI DCT INSOX DCT NIKMA DCT VERUN DCT LOMED DCT RUXOL DCT KALIK
Aircraft B738/M-SDE2E3FGHIRWXY/LB1

Departure

Time 2026-04-29 20:27
Airport Naples International Airport (LIRN)

Arrival

Time 2026-04-29 22:05
Airport Milano Linate Airport (LIML)
Time Latitude Longitude Altitude Speed Heading
2026-04-29 20:00 40.87884 14.28285 290 ft 0 kts 187°
2026-04-29 20:17 40.87891 14.28286 290 ft 2 kts 185°
2026-04-29 20:17 40.87908 14.28289 292 ft 2 kts 187°
2026-04-29 20:17 40.87924 14.28292 290 ft 2 kts 189°
2026-04-29 20:17 40.87940 14.28297 291 ft 2 kts 203°
2026-04-29 20:18 40.87948 14.28310 295 ft 1 kts 277°
2026-04-29 20:18 40.87948 14.28312 296 ft 0 kts 275°
2026-04-29 20:20 40.87949 14.28300 289 ft 5 kts 275°
2026-04-29 20:21 40.87957 14.28212 294 ft 12 kts 277°
2026-04-29 20:21 40.87978 14.28140 293 ft 8 kts 324°
2026-04-29 20:21 40.88035 14.28169 291 ft 14 kts 51°
2026-04-29 20:21 40.88064 14.28312 287 ft 18 kts 97°
2026-04-29 20:22 40.88047 14.28479 284 ft 18 kts 97°
2026-04-29 20:22 40.88029 14.28643 282 ft 18 kts 98°
2026-04-29 20:22 40.88027 14.28671 282 ft 1 kts 84°
2026-04-29 20:22 40.88043 14.28673 281 ft 7 kts 351°
2026-04-29 20:23 40.88107 14.28713 280 ft 14 kts 51°
2026-04-29 20:23 40.88197 14.28868 276 ft 25 kts 52°
2026-04-29 20:23 40.88307 14.29059 271 ft 27 kts 52°
2026-04-29 20:23 40.88415 14.29248 266 ft 25 kts 52°
2026-04-29 20:24 40.88517 14.29423 262 ft 23 kts 52°
2026-04-29 20:24 40.88613 14.29590 257 ft 22 kts 52°
2026-04-29 20:24 40.88707 14.29751 252 ft 22 kts 53°
2026-04-29 20:24 40.88797 14.29909 247 ft 21 kts 52°
2026-04-29 20:25 40.88886 14.30060 242 ft 21 kts 53°
2026-04-29 20:25 40.88972 14.30210 236 ft 21 kts 51°
2026-04-29 20:25 40.89060 14.30362 230 ft 19 kts 54°
2026-04-29 20:25 40.89116 14.30445 227 ft 10 kts 25°
2026-04-29 20:26 40.89185 14.30430 225 ft 10 kts 328°
2026-04-29 20:26 40.89205 14.30351 227 ft 9 kts 245°
2026-04-29 20:26 40.89170 14.30276 231 ft 11 kts 238°
2026-04-29 20:26 40.89025 14.29968 241 ft 75 kts 238°
2026-04-29 20:27 40.88627 14.29126 265 ft 139 kts 238°
2026-04-29 20:27 40.88260 14.28326 388 ft 164 kts 240°
2026-04-29 20:27 40.87382 14.26713 1443 ft 167 kts 223°
2026-04-29 20:27 40.86497 14.25676 2185 ft 173 kts 221°
2026-04-29 20:28 40.85416 14.24992 3007 ft 176 kts 184°
2026-04-29 20:28 40.84203 14.25393 3827 ft 185 kts 156°
2026-04-29 20:28 40.83031 14.26135 4636 ft 191 kts 162°
2026-04-29 20:28 40.81723 14.26683 5299 ft 198 kts 168°
2026-04-29 20:29 40.80394 14.27091 6137 ft 199 kts 172°
2026-04-29 20:29 40.78990 14.27220 6592 ft 211 kts 196°
2026-04-29 20:29 40.77762 14.26127 6772 ft 226 kts 237°
2026-04-29 20:29 40.77300 14.24093 7046 ft 242 kts 270°
2026-04-29 20:30 40.77701 14.21877 7320 ft 263 kts 298°
2026-04-29 20:30 40.78936 14.20025 7867 ft 277 kts 320°
2026-04-29 20:30 40.80521 14.18567 8805 ft 278 kts 325°
2026-04-29 20:30 40.82165 14.17204 9755 ft 280 kts 326°
2026-04-29 20:31 40.83834 14.15828 10497 ft 288 kts 325°
2026-04-29 20:31 40.85574 14.14371 10724 ft 313 kts 325°
2026-04-29 20:31 40.87471 14.12751 10923 ft 337 kts 325°
2026-04-29 20:31 40.89479 14.11011 11380 ft 350 kts 324°
2026-04-29 20:32 40.91546 14.09201 12130 ft 354 kts 324°
2026-04-29 20:32 40.93573 14.07412 12921 ft 356 kts 324°
2026-04-29 20:32 40.95642 14.05576 13708 ft 360 kts 324°
2026-04-29 20:32 40.97727 14.03716 14412 ft 363 kts 324°
2026-04-29 20:33 40.99826 14.01837 15117 ft 366 kts 324°
2026-04-29 20:33 41.01946 13.99937 15835 ft 369 kts 324°
2026-04-29 20:33 41.04083 13.98018 16520 ft 373 kts 323°
2026-04-29 20:33 41.06234 13.96083 17180 ft 376 kts 323°
2026-04-29 20:34 41.08415 13.94120 17845 ft 380 kts 323°
2026-04-29 20:34 41.10611 13.92143 18478 ft 383 kts 323°
2026-04-29 20:34 41.12824 13.90148 19026 ft 386 kts 323°
2026-04-29 20:34 41.15049 13.88141 19581 ft 389 kts 323°
2026-04-29 20:35 41.17295 13.86113 20128 ft 392 kts 323°
2026-04-29 20:35 41.19555 13.84072 20660 ft 394 kts 323°
2026-04-29 20:35 41.21831 13.82014 21180 ft 397 kts 323°
2026-04-29 20:35 41.24123 13.79939 21680 ft 400 kts 323°
2026-04-29 20:36 41.26431 13.77848 22183 ft 403 kts 323°
2026-04-29 20:36 41.28756 13.75744 22680 ft 406 kts 324°
2026-04-29 20:36 41.31131 13.73696 23162 ft 409 kts 325°
2026-04-29 20:36 41.33537 13.71649 23640 ft 412 kts 325°
2026-04-29 20:37 41.35944 13.69562 24035 ft 414 kts 324°
2026-04-29 20:37 41.38347 13.67426 24450 ft 416 kts 324°
2026-04-29 20:37 41.40747 13.65251 24858 ft 418 kts 323°
2026-04-29 20:37 41.43148 13.63046 25249 ft 420 kts 323°
2026-04-29 20:38 41.45557 13.60820 25632 ft 422 kts 323°
2026-04-29 20:38 41.47973 13.58579 26017 ft 424 kts 323°
2026-04-29 20:38 41.50401 13.56325 26372 ft 426 kts 323°
2026-04-29 20:38 41.52838 13.54061 26718 ft 428 kts 323°
2026-04-29 20:39 41.55295 13.51778 27089 ft 430 kts 323°
2026-04-29 20:39 41.57753 13.49492 27425 ft 432 kts 323°
2026-04-29 20:39 41.60226 13.47191 27758 ft 434 kts 323°
2026-04-29 20:39 41.62675 13.44910 28093 ft 436 kts 323°
2026-04-29 20:40 41.65167 13.42587 28414 ft 437 kts 323°
2026-04-29 20:40 41.67672 13.40249 28741 ft 439 kts 323°
2026-04-29 20:40 41.70186 13.37913 29054 ft 441 kts 323°
2026-04-29 20:40 41.72754 13.35647 29389 ft 442 kts 325°
2026-04-29 20:41 41.75344 13.33441 29885 ft 440 kts 325°
2026-04-29 20:41 41.77927 13.31264 30388 ft 437 kts 325°
2026-04-29 20:41 41.80496 13.29094 30776 ft 436 kts 325°
2026-04-29 20:41 41.83053 13.26922 31108 ft 435 kts 325°
2026-04-29 20:42 41.85608 13.24737 31488 ft 434 kts 324°
2026-04-29 20:42 41.88145 13.22559 31901 ft 432 kts 324°
2026-04-29 20:42 41.90669 13.20385 32320 ft 430 kts 324°
2026-04-29 20:42 41.93187 13.18211 32714 ft 429 kts 324°
2026-04-29 20:43 41.95696 13.16040 33016 ft 429 kts 324°
2026-04-29 20:43 41.98207 13.13864 33335 ft 429 kts 324°
2026-04-29 20:43 42.00712 13.11693 33721 ft 427 kts 324°
2026-04-29 20:43 42.03173 13.09558 34089 ft 426 kts 323°
2026-04-29 20:44 42.05657 13.07402 34396 ft 425 kts 323°
2026-04-29 20:44 42.08142 13.05243 34627 ft 425 kts 323°
2026-04-29 20:44 42.10628 13.03080 34860 ft 426 kts 323°
2026-04-29 20:44 42.13123 13.00908 35088 ft 426 kts 324°
2026-04-29 20:45 42.15612 12.98739 35359 ft 425 kts 324°
2026-04-29 20:45 42.18097 12.96572 35602 ft 425 kts 324°
2026-04-29 20:45 42.20576 12.94408 35865 ft 424 kts 324°
2026-04-29 20:45 42.23048 12.92248 36091 ft 424 kts 324°
2026-04-29 20:46 42.28042 12.87876 36093 ft 430 kts 324°
2026-04-29 20:46 42.33038 12.83497 36081 ft 426 kts 324°
2026-04-29 20:47 42.37988 12.79150 36090 ft 423 kts 324°
2026-04-29 20:47 42.42079 12.75550 36082 ft 421 kts 324°
2026-04-29 20:48 42.47775 12.70528 36094 ft 420 kts 324°
2026-04-29 20:48 42.52679 12.66195 36093 ft 421 kts 324°
2026-04-29 20:49 42.57598 12.61840 36084 ft 423 kts 324°
2026-04-29 20:49 42.62565 12.57433 36096 ft 431 kts 324°
2026-04-29 20:50 42.67619 12.52941 36081 ft 435 kts 324°
2026-04-29 20:50 42.72688 12.48430 36078 ft 435 kts 324°
2026-04-29 20:51 42.77751 12.43914 36074 ft 435 kts 324°
2026-04-29 20:51 42.82807 12.39394 36077 ft 435 kts 324°
2026-04-29 20:52 42.87863 12.34866 36073 ft 434 kts 324°
2026-04-29 20:52 42.92905 12.30340 36082 ft 434 kts 324°
2026-04-29 20:53 42.97942 12.25810 36073 ft 433 kts 324°
2026-04-29 20:53 43.02968 12.21281 36080 ft 433 kts 324°
2026-04-29 20:54 43.10141 12.13887 36079 ft 429 kts 316°
2026-04-29 20:55 43.14591 12.08448 36082 ft 429 kts 316°
2026-04-29 20:55 43.19058 12.03026 36077 ft 429 kts 316°
2026-04-29 20:56 43.23540 11.97616 36084 ft 429 kts 316°
2026-04-29 20:56 43.28015 11.92208 36083 ft 429 kts 316°
2026-04-29 20:57 43.32491 11.86789 36081 ft 428 kts 316°
2026-04-29 20:57 43.36954 11.81376 36083 ft 428 kts 316°
2026-04-29 20:58 43.41414 11.75956 36086 ft 428 kts 316°
2026-04-29 20:58 43.45114 11.71449 36086 ft 427 kts 316°
2026-04-29 20:59 43.50281 11.65144 36082 ft 427 kts 316°
2026-04-29 20:59 43.53999 11.60597 36088 ft 426 kts 316°
2026-04-29 21:00 43.58432 11.55164 36079 ft 426 kts 316°
2026-04-29 21:00 43.62859 11.49730 36084 ft 426 kts 316°
2026-04-29 21:01 43.67272 11.44300 36064 ft 425 kts 316°
2026-04-29 21:01 43.71658 11.38894 36078 ft 424 kts 316°
2026-04-29 21:02 43.76062 11.33453 36089 ft 424 kts 316°
2026-04-29 21:02 43.80461 11.28007 36077 ft 424 kts 316°
2026-04-29 21:03 43.84853 11.22558 36076 ft 423 kts 316°
2026-04-29 21:03 43.88549 11.16281 36088 ft 420 kts 301°
2026-04-29 21:04 43.91600 11.09441 36072 ft 414 kts 301°
2026-04-29 21:04 43.94613 11.02683 36090 ft 411 kts 301°
2026-04-29 21:05 43.97631 10.95964 36103 ft 409 kts 302°
2026-04-29 21:05 44.00646 10.89269 36140 ft 409 kts 302°
2026-04-29 21:06 44.03658 10.82572 36162 ft 409 kts 302°
2026-04-29 21:06 44.06677 10.75845 36176 ft 411 kts 302°
2026-04-29 21:06 44.08200 10.72445 35823 ft 420 kts 302°
2026-04-29 21:07 44.09749 10.68983 35306 ft 421 kts 302°
2026-04-29 21:07 44.11291 10.65532 34708 ft 420 kts 302°
2026-04-29 21:07 44.12831 10.62080 34067 ft 419 kts 301°
2026-04-29 21:07 44.14359 10.58652 33576 ft 414 kts 301°
2026-04-29 21:08 44.15870 10.55258 33078 ft 409 kts 301°
2026-04-29 21:08 44.17362 10.51904 32599 ft 405 kts 301°
2026-04-29 21:08 44.18840 10.48579 32142 ft 401 kts 301°
2026-04-29 21:08 44.20300 10.45290 31667 ft 397 kts 301°
2026-04-29 21:09 44.21728 10.42071 31211 ft 394 kts 301°
2026-04-29 21:09 44.23160 10.38836 30759 ft 391 kts 301°
2026-04-29 21:09 44.24580 10.35624 30309 ft 388 kts 301°
2026-04-29 21:09 44.25989 10.32434 29783 ft 385 kts 301°
2026-04-29 21:10 44.27386 10.29267 29309 ft 381 kts 301°
2026-04-29 21:10 44.28766 10.26134 28869 ft 377 kts 301°
2026-04-29 21:10 44.30133 10.23027 28399 ft 374 kts 301°
2026-04-29 21:10 44.31485 10.19953 27936 ft 370 kts 301°
2026-04-29 21:11 44.32826 10.16900 27517 ft 366 kts 301°
2026-04-29 21:11 44.34152 10.13877 27069 ft 364 kts 301°
2026-04-29 21:11 44.35488 10.10830 26618 ft 362 kts 301°
2026-04-29 21:11 44.36777 10.07884 26200 ft 359 kts 301°
2026-04-29 21:12 44.38074 10.04918 25768 ft 357 kts 301°
2026-04-29 21:12 44.39365 10.01963 25329 ft 355 kts 301°
2026-04-29 21:12 44.40649 9.99022 24917 ft 353 kts 301°
2026-04-29 21:12 44.41925 9.96095 24507 ft 352 kts 301°
2026-04-29 21:13 44.43199 9.93169 24084 ft 351 kts 301°
2026-04-29 21:13 44.44468 9.90255 23652 ft 350 kts 301°
2026-04-29 21:13 44.45731 9.87350 23158 ft 349 kts 301°
2026-04-29 21:13 44.46989 9.84465 22720 ft 346 kts 302°
2026-04-29 21:14 44.48321 9.81669 22290 ft 344 kts 304°
2026-04-29 21:14 44.49700 9.78927 21871 ft 344 kts 305°
2026-04-29 21:14 44.51110 9.76153 21473 ft 359 kts 305°
2026-04-29 21:14 44.52586 9.73238 21034 ft 372 kts 305°
2026-04-29 21:15 44.54086 9.70256 20579 ft 374 kts 305°
2026-04-29 21:15 44.55575 9.67278 20113 ft 372 kts 304°
2026-04-29 21:15 44.57051 9.64316 19676 ft 370 kts 305°
2026-04-29 21:15 44.58515 9.61368 19235 ft 367 kts 305°
2026-04-29 21:16 44.59949 9.58476 18809 ft 364 kts 305°
2026-04-29 21:16 44.61380 9.55587 18544 ft 356 kts 305°
2026-04-29 21:16 44.62763 9.52794 18336 ft 340 kts 305°
2026-04-29 21:16 44.64076 9.50141 18179 ft 324 kts 305°
2026-04-29 21:17 44.65342 9.47579 18100 ft 316 kts 305°
2026-04-29 21:17 44.66575 9.45081 18093 ft 306 kts 305°
2026-04-29 21:17 44.67765 9.42668 18103 ft 294 kts 305°
2026-04-29 21:17 44.68905 9.40355 18096 ft 282 kts 305°
2026-04-29 21:18 44.69994 9.38143 18086 ft 270 kts 306°
2026-04-29 21:18 44.71280 9.36347 18083 ft 255 kts 329°
2026-04-29 21:18 44.72880 9.35411 18083 ft 248 kts 347°
2026-04-29 21:18 44.74600 9.35111 18145 ft 255 kts 354°
2026-04-29 21:19 44.76413 9.34949 18127 ft 264 kts 354°
2026-04-29 21:19 44.78266 9.34790 17788 ft 271 kts 354°
2026-04-29 21:19 44.80157 9.34967 17207 ft 278 kts 15°
2026-04-29 21:19 44.81860 9.36318 16533 ft 289 kts 41°
2026-04-29 21:20 44.82992 9.38659 16014 ft 295 kts 67°
2026-04-29 21:20 44.83388 9.41500 15556 ft 296 kts 83°
2026-04-29 21:20 44.83523 9.44403 15233 ft 296 kts 84°
2026-04-29 21:20 44.83655 9.47264 14986 ft 288 kts 80°
2026-04-29 21:21 44.84265 9.49910 14466 ft 284 kts 58°
2026-04-29 21:21 44.85279 9.52272 14100 ft 280 kts 56°
2026-04-29 21:21 44.86286 9.54597 13721 ft 275 kts 57°
2026-04-29 21:21 44.87246 9.56841 13649 ft 260 kts 57°
2026-04-29 21:22 44.88161 9.58991 13415 ft 252 kts 57°
2026-04-29 21:22 44.89290 9.60827 12959 ft 248 kts 30°
2026-04-29 21:22 44.90886 9.61650 12522 ft 244 kts
2026-04-29 21:22 44.92579 9.61658 12128 ft 243 kts 355°
2026-04-29 21:23 44.94258 9.61467 11723 ft 243 kts 354°
2026-04-29 21:23 44.95919 9.61264 11357 ft 241 kts 353°
2026-04-29 21:23 44.97489 9.60561 10952 ft 239 kts 326°
2026-04-29 21:23 44.98621 9.58869 10552 ft 239 kts 298°
2026-04-29 21:24 44.99116 9.56657 10180 ft 239 kts 275°
2026-04-29 21:24 44.99084 9.54310 9782 ft 239 kts 267°
2026-04-29 21:24 44.98944 9.51981 9391 ft 238 kts 266°
2026-04-29 21:24 44.98801 9.49654 9001 ft 237 kts 266°
2026-04-29 21:25 44.98666 9.47329 8620 ft 237 kts 266°
2026-04-29 21:25 44.98533 9.45011 8244 ft 236 kts 266°
2026-04-29 21:25 44.98405 9.42702 7884 ft 235 kts 266°
2026-04-29 21:25 44.98279 9.40402 7531 ft 234 kts 266°
2026-04-29 21:26 44.98155 9.38109 7173 ft 234 kts 267°
2026-04-29 21:26 44.98096 9.35828 6815 ft 232 kts 280°
2026-04-29 21:26 44.98755 9.33795 6419 ft 229 kts 315°
2026-04-29 21:26 45.00081 9.32615 6053 ft 228 kts 345°
2026-04-29 21:27 45.01106 9.32327 6017 ft 227 kts 354°
2026-04-29 21:27 45.03259 9.32091 5638 ft 234 kts 358°
2026-04-29 21:27 45.04865 9.31944 5503 ft 228 kts 358°
2026-04-29 21:27 45.06435 9.31791 5325 ft 225 kts 358°
2026-04-29 21:28 45.07989 9.31634 5065 ft 222 kts 358°
2026-04-29 21:28 45.09506 9.31476 4873 ft 217 kts 358°
2026-04-29 21:28 45.11012 9.31320 4530 ft 218 kts 359°
2026-04-29 21:28 45.12531 9.31162 4206 ft 218 kts 359°
2026-04-29 21:29 45.14053 9.31001 3830 ft 222 kts 360°
2026-04-29 21:29 45.15594 9.30834 3505 ft 222 kts
2026-04-29 21:29 45.17124 9.30667 3239 ft 220 kts
2026-04-29 21:29 45.18608 9.30508 3174 ft 207 kts
2026-04-29 21:30 45.20010 9.30357 3065 ft 203 kts
2026-04-29 21:30 45.21401 9.30205 3031 ft 199 kts
2026-04-29 21:30 45.22816 9.30054 2990 ft 202 kts
2026-04-29 21:30 45.24211 9.29901 2987 ft 200 kts
2026-04-29 21:31 45.25587 9.29753 2986 ft 197 kts
2026-04-29 21:31 45.26938 9.29607 2984 ft 197 kts
2026-04-29 21:31 45.28308 9.29459 2984 ft 198 kts
2026-04-29 21:31 45.29678 9.29310 2977 ft 198 kts
2026-04-29 21:32 45.31084 9.29160 2786 ft 205 kts
2026-04-29 21:32 45.32486 9.29006 2512 ft 196 kts
2026-04-29 21:32 45.33805 9.28861 2263 ft 184 kts
2026-04-29 21:32 45.35038 9.28726 2076 ft 172 kts
2026-04-29 21:33 45.36219 9.28598 1867 ft 166 kts
2026-04-29 21:33 45.37350 9.28480 1659 ft 161 kts
2026-04-29 21:33 45.38462 9.28353 1473 ft 159 kts
2026-04-29 21:33 45.39552 9.28190 1200 ft 158 kts
2026-04-29 21:34 45.40634 9.28099 913 ft 154 kts
2026-04-29 21:34 45.41674 9.28006 667 ft 147 kts
2026-04-29 21:34 45.42691 9.27886 539 ft 159 kts
2026-04-29 21:34 45.43868 9.27907 1159 ft 183 kts
2026-04-29 21:35 45.45091 9.27862 2023 ft 166 kts
2026-04-29 21:35 45.46349 9.27736 1942 ft 205 kts
2026-04-29 21:35 45.47918 9.27517 2401 ft 240 kts
2026-04-29 21:35 45.49598 9.27274 2869 ft 243 kts 360°
2026-04-29 21:36 45.51273 9.27182 2898 ft 238 kts 14°
2026-04-29 21:36 45.52794 9.27857 2944 ft 224 kts 30°
2026-04-29 21:36 45.54130 9.28931 2984 ft 220 kts 40°
2026-04-29 21:36 45.55301 9.30348 3003 ft 221 kts 52°
2026-04-29 21:37 45.56245 9.32061 3004 ft 219 kts 63°
2026-04-29 21:37 45.56910 9.34027 3238 ft 222 kts 75°
2026-04-29 21:37 45.57245 9.36158 4123 ft 221 kts 86°
2026-04-29 21:37 45.57249 9.38355 4699 ft 222 kts 98°
2026-04-29 21:38 45.56876 9.40497 4989 ft 226 kts 112°
2026-04-29 21:38 45.56130 9.42502 4987 ft 229 kts 124°
2026-04-29 21:38 45.55143 9.44280 4986 ft 229 kts 133°
2026-04-29 21:38 45.53851 9.45548 4985 ft 227 kts 162°
2026-04-29 21:39 45.52310 9.45845 4999 ft 222 kts 175°
2026-04-29 21:39 45.50779 9.45906 4989 ft 218 kts 176°
2026-04-29 21:39 45.49281 9.45944 4981 ft 213 kts 176°
2026-04-29 21:39 45.47805 9.45976 4995 ft 212 kts 176°
2026-04-29 21:40 45.46310 9.45994 5035 ft 218 kts 176°
2026-04-29 21:40 45.44783 9.46013 5038 ft 227 kts 177°
2026-04-29 21:40 45.43184 9.46040 4980 ft 229 kts 176°
2026-04-29 21:40 45.41612 9.46070 4986 ft 224 kts 176°
2026-04-29 21:41 45.40070 9.46088 4977 ft 219 kts 176°
2026-04-29 21:41 45.38563 9.46104 4974 ft 214 kts 176°
2026-04-29 21:41 45.37090 9.46120 4983 ft 211 kts 176°
2026-04-29 21:41 45.35621 9.46132 4987 ft 213 kts 176°
2026-04-29 21:42 45.34106 9.46142 5010 ft 223 kts 176°
2026-04-29 21:42 45.32528 9.46152 5014 ft 229 kts 176°
2026-04-29 21:42 45.31466 9.46153 5007 ft 231 kts 176°
2026-04-29 21:42 45.29333 9.46157 4975 ft 226 kts 177°
2026-04-29 21:43 45.27724 9.46159 4882 ft 236 kts 176°
2026-04-29 21:43 45.26068 9.46160 4825 ft 236 kts 176°
2026-04-29 21:43 45.24439 9.46150 4638 ft 232 kts 176°
2026-04-29 21:43 45.22842 9.46132 4466 ft 226 kts 176°
2026-04-29 21:44 45.21299 9.46111 4258 ft 218 kts 176°
2026-04-29 21:44 45.19804 9.46079 4047 ft 212 kts 178°
2026-04-29 21:44 45.18415 9.45434 3802 ft 218 kts 215°
2026-04-29 21:44 45.17645 9.43586 3597 ft 225 kts 257°
2026-04-29 21:45 45.17452 9.41416 3429 ft 220 kts 260°
2026-04-29 21:45 45.17286 9.39288 3237 ft 214 kts 260°
2026-04-29 21:45 45.17300 9.37203 3037 ft 213 kts 288°
2026-04-29 21:45 45.18183 9.35618 3025 ft 205 kts 328°
2026-04-29 21:46 45.18959 9.34838 3002 ft 208 kts 326°
2026-04-29 21:46 45.20086 9.33541 3001 ft 209 kts 322°
2026-04-29 21:46 45.21176 9.32169 2985 ft 209 kts 320°
2026-04-29 21:46 45.22261 9.30815 2982 ft 206 kts 330°
2026-04-29 21:47 45.23573 9.30250 3020 ft 194 kts 359°
2026-04-29 21:47 45.24922 9.29944 2994 ft 197 kts 357°
2026-04-29 21:47 45.26275 9.29703 2987 ft 196 kts
2026-04-29 21:47 45.27633 9.29533 2989 ft 196 kts
2026-04-29 21:48 45.28990 9.29383 2984 ft 193 kts
2026-04-29 21:48 45.30298 9.29240 2915 ft 185 kts
2026-04-29 21:48 45.31579 9.29103 2686 ft 183 kts
2026-04-29 21:48 45.32834 9.28967 2447 ft 178 kts
2026-04-29 21:49 45.34058 9.28835 2242 ft 176 kts
2026-04-29 21:49 45.35284 9.28703 2030 ft 178 kts
2026-04-29 21:49 45.36530 9.28569 1729 ft 179 kts
2026-04-29 21:49 45.37763 9.28437 1483 ft 177 kts
2026-04-29 21:50 45.38958 9.28304 1266 ft 171 kts
2026-04-29 21:50 45.40130 9.28104 1002 ft 166 kts 359°
2026-04-29 21:50 45.41233 9.28096 781 ft 156 kts
2026-04-29 21:50 45.42317 9.27881 545 ft 168 kts 358°
2026-04-29 21:51 45.43528 9.27689 1158 ft 181 kts 355°
2026-04-29 21:51 45.44846 9.27545 1708 ft 195 kts
2026-04-29 21:51 45.47840 9.27351 2744 ft 234 kts
2026-04-29 21:52 45.49538 9.27180 2927 ft 251 kts
2026-04-29 21:52 45.51266 9.27144 2882 ft 242 kts 15°
2026-04-29 21:52 45.52826 9.27861 2963 ft 232 kts 30°
2026-04-29 21:52 45.54200 9.28983 2992 ft 225 kts 41°
2026-04-29 21:53 45.55355 9.30428 2990 ft 218 kts 53°
2026-04-29 21:53 45.56252 9.32137 2985 ft 212 kts 64°
2026-04-29 21:53 45.56869 9.34047 3044 ft 214 kts 75°
2026-04-29 21:53 45.57180 9.36146 3563 ft 218 kts 88°
2026-04-29 21:54 45.57163 9.38309 4441 ft 220 kts 98°
2026-04-29 21:54 45.56806 9.40437 4852 ft 222 kts 112°
2026-04-29 21:54 45.56086 9.42396 4977 ft 225 kts 124°
2026-04-29 21:54 45.55120 9.44152 4990 ft 225 kts 133°
2026-04-29 21:55 45.53949 9.45634 4986 ft 226 kts 146°
2026-04-29 21:55 45.52546 9.46639 5006 ft 226 kts 153°
2026-04-29 21:55 45.51403 9.48104 4995 ft 224 kts 116°
2026-04-29 21:55 45.51163 9.50264 4990 ft 223 kts 88°
2026-04-29 21:56 45.51415 9.52449 4774 ft 225 kts 72°
2026-04-29 21:56 45.52320 9.54265 4548 ft 230 kts 40°
2026-04-29 21:56 45.53796 9.55105 4374 ft 232 kts
2026-04-29 21:56 45.55363 9.54741 4177 ft 228 kts 342°
2026-04-29 21:57 45.56827 9.53914 4044 ft 224 kts 340°
2026-04-29 21:57 45.58256 9.53055 3998 ft 221 kts 337°
2026-04-29 21:57 45.59371 9.51620 3983 ft 218 kts 294°
2026-04-29 21:57 45.59598 9.49556 4025 ft 211 kts 268°
2026-04-29 21:58 45.59957 9.47506 4015 ft 216 kts 293°
2026-04-29 21:58 45.60535 9.45491 4007 ft 222 kts 290°
2026-04-29 21:58 45.61066 9.43454 4005 ft 220 kts 289°
2026-04-29 21:58 45.61579 9.41413 3990 ft 216 kts 288°
2026-04-29 21:59 45.62076 9.39403 3983 ft 214 kts 288°
2026-04-29 21:59 45.62568 9.37384 3997 ft 216 kts 288°
2026-04-29 21:59 45.63060 9.35350 4004 ft 217 kts 288°
2026-04-29 21:59 45.63555 9.33301 4004 ft 219 kts 288°
2026-04-29 22:00 45.64050 9.31242 4003 ft 220 kts 288°
2026-04-29 22:00 45.64338 9.29124 3987 ft 216 kts 261°
2026-04-29 22:00 45.63791 9.27201 3866 ft 209 kts 225°
2026-04-29 22:00 45.62627 9.26081 3558 ft 199 kts 193°
2026-04-29 22:01 45.61306 9.25929 3397 ft 184 kts 171°
2026-04-29 22:01 45.60016 9.26038 3134 ft 185 kts 172°
2026-04-29 22:01 45.58730 9.26166 2896 ft 187 kts 170°
2026-04-29 22:01 45.57471 9.26301 2652 ft 175 kts 169°
2026-04-29 22:02 45.56292 9.26429 2427 ft 165 kts 169°
2026-04-29 22:02 45.55188 9.26548 2227 ft 151 kts 168°
2026-04-29 22:02 45.54168 9.26661 2024 ft 145 kts 168°
2026-04-29 22:02 45.53161 9.26771 1837 ft 146 kts 168°
2026-04-29 22:03 45.52147 9.26882 1642 ft 147 kts 170°
2026-04-29 22:03 45.51117 9.26991 1434 ft 148 kts 170°
2026-04-29 22:03 45.50109 9.27079 1392 ft 143 kts 170°
2026-04-29 22:03 45.49097 9.27219 1257 ft 149 kts 168°
2026-04-29 22:04 45.48037 9.27308 900 ft 156 kts 174°
2026-04-29 22:04 45.46977 9.27430 690 ft 153 kts 171°
2026-04-29 22:04 45.45947 9.27548 490 ft 143 kts 172°
2026-04-29 22:04 45.44981 9.27649 365 ft 131 kts 170°
2026-04-29 22:05 45.44248 9.27733 361 ft 75 kts 175°
2026-04-29 22:05 45.43916 9.27769 360 ft 36 kts 177°
2026-04-29 22:05 45.43479 9.27820 363 ft 8 kts 165°
2026-04-29 22:06 45.43441 9.27894 361 ft 14 kts 91°
2026-04-29 22:06 45.43452 9.28047 365 ft 9 kts 68°
2026-04-29 22:06 45.43509 9.28081 360 ft 12 kts 357°
2026-04-29 22:06 45.43639 9.28066 360 ft 24 kts 358°
2026-04-29 22:07 45.43813 9.28049 366 ft 25 kts 354°
2026-04-29 22:07 45.43978 9.28032 365 ft 23 kts 355°
2026-04-29 22:07 45.44136 9.28015 362 ft 22 kts 355°
2026-04-29 22:07 45.44289 9.27997 359 ft 22 kts 355°
2026-04-29 22:08 45.44438 9.27982 365 ft 21 kts 355°
2026-04-29 22:08 45.44590 9.27965 362 ft 23 kts 356°
2026-04-29 22:08 45.44751 9.27949 364 ft 23 kts 356°
2026-04-29 22:08 45.44890 9.27924 363 ft 16 kts 342°
2026-04-29 22:09 45.44922 9.27910 361 ft 9 kts 343°
2026-04-29 22:09 45.45020 9.27887 359 ft 20 kts 354°
2026-04-29 22:09 45.45152 9.27872 359 ft 15 kts 356°
2026-04-29 22:09 45.45252 9.27883 362 ft 14 kts 20°
2026-04-29 22:10 45.45342 9.27934 362 ft 14 kts 22°
2026-04-29 22:10 45.45415 9.27969 359 ft 8 kts
2026-04-29 22:10 45.45455 9.27930 360 ft 9 kts 284°
2026-04-29 22:10 45.45465 9.27831 365 ft 10 kts 303°
2026-04-29 22:11 45.45533 9.27814 361 ft 10 kts 359°
2026-04-29 22:11 45.45611 9.27814 359 ft 13 kts
2026-04-29 22:11 45.45708 9.27817 359 ft 9 kts
2026-04-29 22:11 45.45734 9.27865 359 ft 7 kts 82°
2026-04-29 22:12 45.45735 9.27893 359 ft 0 kts 86°